• In Latvia
  • List of Countries
  • For 7 days
  • Water Temperature
  • Satellite Maps
  • Weather Map
  • Weather Widgets
  • user-avatar
    Login

    Hourly Weather Konstantinovka

    Today, 19 November, Sunday

    Time Temperature Precipitation Wind Pressure Humidity
    00:00 +3°C° 0.1 mm 2 mps 753 mmHg 76%
    01:00 +3°C° 0 mm 2 mps 752 mmHg 78%
    02:00 +3°C° 0 mm 2 mps 752 mmHg 81%
    03:00 +2°C° 0 mm 3 mps 751 mmHg 84%
    04:00 +2°C° 0.1 mm 3 mps 751 mmHg 85%
    05:00 +3°C° 0.1 mm 2 mps 750 mmHg 87%
    06:00 +4°C° 0.1 mm 2 mps 750 mmHg 88%
    07:00 +4°C° 0.1 mm 2 mps 750 mmHg 88%
    08:00 +4°C° 0.1 mm 3 mps 749 mmHg 88%
    09:00 +4°C° 0.1 mm 3 mps 749 mmHg 88%
    10:00 +5°C° 0 mm 3 mps 749 mmHg 82%
    11:00 +7°C° 0 mm 3 mps 749 mmHg 77%
    12:00 +9°C° 0 mm 3 mps 749 mmHg 72%
    13:00 +9°C° 0 mm 3 mps 748 mmHg 70%
    14:00 +10°C° 0 mm 3 mps 748 mmHg 69%
    15:00 +10°C° 0 mm 3 mps 748 mmHg 68%
    16:00 +10°C° 0 mm 2 mps 748 mmHg 72%
    17:00 +9°C° 0 mm 2 mps 748 mmHg 76%
    18:00 +8°C° 0 mm 2 mps 748 mmHg 80%
    19:00 +8°C° 0.2 mm 2 mps 747 mmHg 81%
    20:00 +8°C° 0.2 mm 2 mps 747 mmHg 83%
    21:00 +8°C° 0.2 mm 2 mps 747 mmHg 85%
    22:00 +9°C° 0.4 mm 1 mps 747 mmHg 86%
    23:00 +9°C° 0.4 mm 1 mps 747 mmHg 87%

    Tomorrow, 20 November, Monday

    Time Temperature Precipitation Wind Pressure Humidity
    00:00 +9°C° 0.4 mm 1 mps 747 mmHg 88%
    01:00 +8°C° 0 mm 1 mps 747 mmHg 88%
    02:00 +8°C° 0 mm 1 mps 747 mmHg 88%
    03:00 +8°C° 0 mm 1 mps 747 mmHg 89%
    04:00 +8°C° 0 mm 1 mps 747 mmHg 89%
    05:00 +8°C° 0 mm 1 mps 746 mmHg 90%
    06:00 +6°C° 0 mm 2 mps 746 mmHg 90%
    07:00 +6°C° 0 mm 2 mps 746 mmHg 89%
    08:00 +6°C° 0 mm 2 mps 746 mmHg 89%
    09:00 +7°C° 0 mm 2 mps 745 mmHg 88%
    10:00 +8°C° 0 mm 2 mps 745 mmHg 82%
    11:00 +9°C° 0 mm 3 mps 745 mmHg 76%
    12:00 +10°C° 0 mm 3 mps 744 mmHg 71%
    13:00 +10°C° 0 mm 3 mps 744 mmHg 70%
    14:00 +11°C° 0 mm 3 mps 744 mmHg 70%
    15:00 +11°C° 0 mm 3 mps 743 mmHg 70%
    16:00 +11°C° 0.2 mm 3 mps 743 mmHg 76%
    17:00 +11°C° 0.2 mm 3 mps 743 mmHg 81%
    18:00 +10°C° 0.2 mm 3 mps 743 mmHg 87%
    19:00 +10°C° 0.4 mm 4 mps 742 mmHg 87%
    20:00 +10°C° 0.4 mm 4 mps 742 mmHg 87%
    21:00 +10°C° 0.4 mm 4 mps 742 mmHg 87%
    22:00 +8°C° 0.2 mm 4 mps 742 mmHg 87%
    23:00 +8°C° 0.2 mm 5 mps 742 mmHg 87%

    Day after tomorrow, 21 November, Tuesday

    Time Temperature Precipitation Wind Pressure Humidity
    00:00 +7°C° 0.2 mm 5 mps 742 mmHg 87%
    01:00 +6°C° 0.1 mm 5 mps 742 mmHg 86%
    02:00 +5°C° 0.1 mm 5 mps 742 mmHg 85%
    03:00 +3°C° 0.1 mm 5 mps 743 mmHg 84%
    04:00 +3°C° 0 mm 5 mps 743 mmHg 83%
    05:00 +2°C° 0 mm 5 mps 743 mmHg 82%
    06:00 +2°C° 0 mm 6 mps 743 mmHg 81%
    07:00 +2°C° 0 mm 5 mps 744 mmHg 80%
    08:00 +1°C° 0 mm 5 mps 744 mmHg 79%
    09:00 +1°C° 0 mm 5 mps 745 mmHg 79%
    10:00 +2°C° 0 mm 5 mps 745 mmHg 75%
    11:00 +2°C° 0 mm 5 mps 745 mmHg 72%
    12:00 +2°C° 0 mm 5 mps 746 mmHg 69%
    13:00 +2°C° 0 mm 5 mps 746 mmHg 66%
    14:00 +2°C° 0 mm 5 mps 746 mmHg 64%
    15:00 +3°C° 0 mm 5 mps 746 mmHg 61%
    16:00 +3°C° 0 mm 4 mps 747 mmHg 64%
    17:00 +3°C° 0 mm 3 mps 747 mmHg 67%
    18:00 +2°C° 0 mm 3 mps 747 mmHg 70%
    19:00 +2°C° 0 mm 3 mps 748 mmHg 72%
    20:00 +1°C° 0 mm 3 mps 748 mmHg 74%
    21:00 +1°C° 0 mm 3 mps 748 mmHg 76%
    22:00 +1°C° 0 mm 3 mps 748 mmHg 75%
    23:00 +1°C° 0 mm 2 mps 749 mmHg 75%

    22 November, Wednesday

    Time Temperature Precipitation Wind Pressure Humidity
    00:00 +1°C° 0 mm 2 mps 749 mmHg 75%
    01:00 +1°C° 0 mm 2 mps 749 mmHg 76%
    02:00 -1°C° 0 mm 2 mps 749 mmHg 76%
    03:00 -1°C° 0 mm 2 mps 750 mmHg 77%
    04:00 -1°C° 0 mm 2 mps 750 mmHg 77%
    05:00 -1°C° 0 mm 2 mps 750 mmHg 78%
    06:00 +1°C° 0 mm 1 mps 750 mmHg 78%
    07:00 +1°C° 0 mm 1 mps 750 mmHg 76%
    08:00 +1°C° 0 mm 1 mps 751 mmHg 74%
    09:00 0°C° 0 mm 0 mps 751 mmHg 71%
    10:00 +2°C° 0 mm 1 mps 751 mmHg 67%
    11:00 +3°C° 0 mm 1 mps 752 mmHg 62%
    12:00 +4°C° 0 mm 1 mps 752 mmHg 57%
    13:00 +4°C° 0 mm 1 mps 752 mmHg 56%
    14:00 +4°C° 0 mm 1 mps 752 mmHg 55%
    15:00 +3°C° 0 mm 2 mps 752 mmHg 54%
    16:00 +3°C° 0 mm 2 mps 752 mmHg 58%
    17:00 +2°C° 0 mm 2 mps 753 mmHg 61%
    18:00 +1°C° 0 mm 2 mps 753 mmHg 65%
    19:00 +1°C° 0 mm 2 mps 754 mmHg 67%
    20:00 -1°C° 0 mm 2 mps 754 mmHg 70%
    21:00 -1°C° 0 mm 2 mps 754 mmHg 72%
    22:00 -1°C° 0 mm 2 mps 755 mmHg 75%
    23:00 -1°C° 0 mm 2 mps 755 mmHg 77%

    23 November, Thursday

    Time Temperature Precipitation Wind Pressure Humidity
    00:00 -2°C° 0 mm 2 mps 755 mmHg 80%
    01:00 -2°C° 0 mm 2 mps 755 mmHg 81%
    02:00 0°C° 0 mm 1 mps 756 mmHg 83%
    03:00 0°C° 0 mm 1 mps 756 mmHg 85%
    04:00 0°C° 0 mm 1 mps 757 mmHg 85%
    05:00 0°C° 0 mm 1 mps 757 mmHg 85%
    06:00 -1°C° 0 mm 0 mps 757 mmHg 86%
    07:00 -1°C° 0 mm 0 mps 758 mmHg 84%
    08:00 -1°C° 0 mm 0 mps 758 mmHg 82%
    09:00 -1°C° 0 mm 0 mps 759 mmHg 80%
    10:00 +1°C° 0 mm 0 mps 759 mmHg 74%
    11:00 +2°C° 0 mm 0 mps 760 mmHg 67%
    12:00 +3°C° 0 mm 0 mps 760 mmHg 60%
    13:00 +4°C° 0 mm 1 mps 760 mmHg 58%
    14:00 +4°C° 0 mm 1 mps 760 mmHg 56%
    15:00 +4°C° 0 mm 1 mps 760 mmHg 54%
    16:00 +3°C° 0 mm 1 mps 760 mmHg 58%
    17:00 +3°C° 0 mm 1 mps 761 mmHg 62%
    18:00 +2°C° 0 mm 1 mps 761 mmHg 67%
    19:00 +1°C° 0 mm 1 mps 761 mmHg 68%
    20:00 +1°C° 0 mm 1 mps 761 mmHg 68%
    21:00 -1°C° 0 mm 2 mps 762 mmHg 69%
    22:00 -1°C° 0 mm 2 mps 762 mmHg 70%
    23:00 -1°C° 0 mm 2 mps 762 mmHg 71%

    24 November, Friday

    Time Temperature Precipitation Wind Pressure Humidity
    00:00 -1°C° 0 mm 2 mps 762 mmHg 71%
    01:00 -1°C° 0 mm 2 mps 762 mmHg 71%
    02:00 -1°C° 0 mm 2 mps 762 mmHg 70%
    03:00 -1°C° 0 mm 2 mps 762 mmHg 69%
    04:00 -1°C° 0 mm 3 mps 762 mmHg 68%
    05:00 -1°C° 0 mm 3 mps 762 mmHg 66%
    06:00 -1°C° 0 mm 3 mps 762 mmHg 65%
    07:00 0°C° 0 mm 3 mps 762 mmHg 64%
    08:00 -1°C° 0 mm 4 mps 762 mmHg 63%
    09:00 -1°C° 0 mm 4 mps 762 mmHg 62%
    10:00 0°C° 0 mm 4 mps 762 mmHg 62%
    11:00 +1°C° 0 mm 4 mps 762 mmHg 61%
    12:00 +2°C° 0 mm 5 mps 762 mmHg 61%
    13:00 +3°C° 0 mm 4 mps 762 mmHg 64%
    14:00 +3°C° 0 mm 4 mps 762 mmHg 67%
    15:00 +3°C° 0 mm 4 mps 761 mmHg 69%
    16:00 +3°C° 0 mm 4 mps 761 mmHg 72%
    17:00 +3°C° 0 mm 4 mps 761 mmHg 75%
    18:00 +3°C° 0 mm 4 mps 761 mmHg 79%
    19:00 +3°C° 0 mm 4 mps 761 mmHg 80%
    20:00 +3°C° 0 mm 4 mps 761 mmHg 82%
    21:00 +3°C° 0 mm 4 mps 761 mmHg 83%
    22:00 +3°C° 0 mm 4 mps 761 mmHg 84%
    23:00 +3°C° 0 mm 4 mps 761 mmHg 84%
    Show more